Volver al catálogo

ARIANE 2 DEB

LostGTO
NORAD 28564·DEBRIS·🇫🇷 France

Lanzado Jan 27, 1989 desde Guiana Space Centre

Loading…

TLE

ObsoletoSource: Space-Track

Época: Mar 27, 2024, 07:25 UTC

1 28564U 89006AF  24087.30935875 -.00000656  00000-0 -39032-1 0  9996
2 28564   8.8605 329.2255 7052839 313.2763 329.2783  2.24712733185831

Sigue ARIANE 2 DEB en tiempo real con AllMySat

Download on the App Store